[[{"header":{"parameterUnit":"m.s-1","parameterCategory":1,"la1":30.2991,"la2":30.254,"lo1":-89.0895,"lo2":-89.0444,"dy":0.0017,"dx":0.0017,"nx":28,"ny":28,"refTime":"2025-03-25T21:00:00:Z","depth":0,"parameterNumber":2,"parameterNumberName":"U-component_of_WINDS"},"data":[0,0,0,0,0,0,0,0,0,0,0,0,0,0,0,0,0,0,0,0,0,0,0,0,0,0,0,0,0,0,0,0,0,0,0,0,0,0,0,0,0,0,0,0,0,0,0,0,0,0,0,0,0,0,0,0,0,0,-5.0375,-5.0376,0,-5.0437,-5.0437,-5.0438,-5.039,-5.0388,-5.0386,-5.0384,-5.0446,-5.045,-5.0453,0,0,0,0,0,0,0,0,0,0,0,0,0,-5.0218,-5.0221,-5.0375,-5.0376,-5.0377,-5.0436,-5.0437,-5.0438,-5.039,-5.0388,-5.0385,-5.0383,-5.0445,-5.0449,-5.0453,0,0,0,0,0,0,0,0,0,0,0,0,0,-5.0284,-5.0222,-5.0375,-5.036,-5.0359,-5.0436,-5.0437,-5.0438,-5.0391,-5.0387,-5.0384,-5.0381,-5.0444,-5.0449,-5.0454,-5.0549,0,0,-5.047,-5.0473,0,0,0,0,0,0,0,0,-5.028,-5.0289,-5.0361,-5.0361,-5.036,-5.0402,-5.0405,-5.0475,-5.0391,-5.0379,-5.0384,-5.038,-5.0434,-5.044,-5.0458,-5.0552,-5.0555,-5.0471,-5.0474,-5.0477,-5.0478,0,0,0,0,0,0,0,-5.0276,-5.0287,-5.0399,-5.0363,-5.0362,-5.0351,-5.0357,-5.0418,-5.0423,-5.038,-5.0376,-5.0384,-5.0433,-5.0453,-5.0459,-5.0556,-5.0471,-5.0476,-5.0479,-5.0481,-5.0733,-5.0736,0,0,0,0,0,0,-5.0272,-5.0283,-5.0397,-5.0401,-5.0312,-5.0356,-5.0363,-5.0392,-5.0422,-5.0424,-5.0387,-5.0382,-5.0445,-5.0453,-5.0461,-5.0575,-5.0476,-5.0482,-5.0485,-5.0729,-5.0734,-5.0737,0,0,0,0,0,0,-5.0269,-5.0283,-5.0395,-5.0341,-5.0355,-5.0362,-5.0395,-5.0395,-5.0415,-5.0428,-5.0428,-5.0406,-5.0443,-5.0454,-5.0528,-5.0577,-5.0484,-5.0489,-5.0725,-5.0731,-5.0735,-5.0804,0,0,0,0,0,0,-5.0265,-5.0282,-5.0318,-5.0343,-5.0358,-5.046,-5.0398,-5.0398,-5.0424,-5.0418,-5.0446,-5.0448,-5.0442,-5.052,-5.0533,-5.0583,-5.0493,-5.0721,-5.0728,-5.0734,-5.0797,-5.0811,-5.0822,0,0,0,0,0,-5.0259,-5.0334,-5.032,-5.0334,-5.0402,-5.0463,-5.0472,-5.0464,-5.0428,-5.0464,-5.0473,-5.0447,-5.057,-5.0528,-5.0543,-5.0594,-5.0718,-5.0726,-5.0733,-5.0791,-5.0808,-5.0822,0,0,0,0,0,0,-5.0314,-5.0337,-5.0321,-5.0406,-5.0433,-5.0455,-5.05,-5.0481,-5.0519,-5.0511,-5.05,-5.0507,-5.0585,-5.0597,-5.0551,-5.0689,-5.0638,-5.0649,-5.0678,-5.0693,-5.0706,-5.07,-5.0497,0,0,0,0,0,-5.0336,-5.0383,-5.0401,-5.0474,-5.0488,-5.0492,-5.0518,-5.051,-5.0538,-5.0549,-5.0563,-5.0591,-5.0636,-5.0665,-5.0707,-5.08,-5.0805,-5.0842,-5.0855,-5.0865,-5.0874,-5.0925,-5.0942,-5.0763,-5.0763,-5.0763,0,0,-5.0381,-5.04,-5.043,-5.0485,-5.0505,-5.0555,-5.0502,-5.0556,-5.0593,-5.0557,-5.0628,-5.064,-5.067,-5.0754,-5.0792,-5.0767,-5.0926,-5.0875,-5.0883,-5.0887,-5.0935,-5.0952,-5.0967,-5.0768,-5.0767,-5.0766,0,0,-5.0489,-5.0508,-5.0571,-5.0593,-5.0625,-5.0627,-5.0643,-5.0668,-5.0675,-5.0746,-5.0721,-5.0765,-5.0843,-5.0866,-5.0888,-5.1009,-5.0986,-5.1023,-5.1088,-5.1138,-5.1152,-5.1164,-5.1208,-5.1223,-5.1033,-5.1033,-5.1033,0,-5.0541,-5.0614,-5.0606,-5.0663,-5.0689,-5.066,-5.0725,-5.0746,-5.079,-5.0809,-5.078,-5.0879,-5.0897,-5.0987,-5.1017,-5.1036,-5.1053,-5.1019,-5.1151,-5.1163,-5.1174,-5.1216,-5.1232,-5.1037,-5.1037,-5.1036,-5.1036,0,-5.0677,-5.0729,-5.0777,-5.0821,-5.0852,-5.0913,-5.0914,-5.0947,-5.0938,-5.0944,-5.1018,-5.104,-5.1087,-5.1108,-5.1098,-5.1197,-5.1181,-5.1152,-5.11,-5.1196,-5.1234,-5.125,-5.1043,-5.1042,-5.1041,-5.104,0,0,-5.0818,-5.0859,-5.0876,-5.0897,-5.0931,-5.0971,-5.1032,-5.1078,-5.1107,-5.1139,-5.119,-5.1258,-5.1233,-5.1258,-5.1251,-5.1295,-5.139,-5.1261,-5.1262,-5.1284,-5.1502,-5.1522,-5.154,-5.1377,-5.138,-5.1382,-5.1499,0,-5.0927,-5.1031,-5.1027,-5.1125,-5.1174,-5.1149,-5.1202,-5.1229,-5.1238,-5.1281,-5.129,-5.1338,-5.1301,-5.1316,-5.1359,-5.137,-5.1434,-5.1362,-5.1424,-5.1426,-5.1415,-5.156,-5.1581,-5.169,-5.1514,-5.1516,-5.1518,0,-5.1067,-5.1105,-5.1208,-5.1238,-5.1258,-5.1305,-5.1349,-5.139,-5.1422,-5.1425,-5.1455,-5.1442,-5.1505,-5.1454,-5.154,-5.1491,-5.1517,-5.1527,-5.1531,-5.1535,-5.1477,-5.1568,-5.1725,-5.1741,-5.1542,-5.154,-5.1538,0,-5.1159,-5.1236,-5.1308,-5.1327,-5.1363,-5.1397,-5.1414,-5.1442,-5.1471,-5.151,-5.1529,-5.1574,-5.1599,-5.1635,-5.1635,-5.1598,-5.1723,-5.1671,-5.1727,-5.1728,-5.1753,-5.1751,-5.1916,-5.1772,-5.1772,-5.1771,-5.1771,0,-5.128,-5.1344,-5.135,-5.1394,-5.1466,-5.1462,-5.1533,-5.1547,-5.1573,-5.162,-5.1602,-5.1647,-5.1645,-5.1691,-5.1692,-5.1764,-5.1775,-5.178,-5.1779,-5.1781,-5.178,-5.1796,-5.1788,-5.1776,-5.1775,-5.1774,-5.1773,0,-5.1393,-5.14,-5.1477,-5.1506,-5.1515,-5.1567,-5.1592,-5.1634,-5.1642,-5.1702,-5.1716,-5.1729,-5.1782,-5.1787,-5.1849,-5.1849,-5.1936,-5.1928,-5.1926,-5.1924,-5.1979,-5.1974,-5.2158,-5.2183,-5.2024,-5.2026,-5.2027,0,-5.1469,-5.1518,-5.1553,-5.1584,-5.1603,-5.1652,-5.1682,-5.1682,-5.1714,-5.1755,-5.1793,-5.1845,-5.1886,-5.1973,-5.1988,-5.2035,-5.2027,-5.2089,-5.2034,-5.2035,-5.2028,-5.2024,-5.2029,-5.2099,-5.2101,-5.2102,-5.2103,0,-5.1604,-5.1606,-5.1649,-5.1696,-5.1733,-5.1769,-5.1803,-5.1829,-5.1833,-5.187,-5.1925,-5.1957,-5.2021,-5.2073,-5.2121,-5.2138,-5.2122,-5.2121,-5.2137,-5.2138,-5.2134,-5.2137,-5.1953,-5.2116,-5.2115,-5.2114,-5.2113,-5.2113,-5.17,-5.1743,-5.1775,-5.1826,-5.1852,-5.1885,-5.1927,-5.1941,-5.1987,-5.2039,-5.2036,-5.2097,-5.213,-5.2192,-5.2214,-5.2262,-5.2241,-5.2263,-5.2269,-5.2274,-5.228,-5.2128,-5.2271,-5.227,-5.227,-5.227,-5.227,0,-5.1833,-5.1853,-5.19,-5.1949,-5.1989,-5.1972,-5.201,-5.2044,-5.2098,-5.213,-5.2172,-5.2236,-5.2287,-5.2308,-5.2358,-5.2393,-5.2387,-5.2406,-5.2403,-5.2407,-5.2295,-5.2277,-5.241,-5.241,-5.241,-5.241,-5.241,-5.241,-5.1907,-5.1979,-5.1985,-5.2071,-5.2091,-5.215,-5.2173,-5.2204,-5.223,-5.2302,-5.2345,-5.2359,-5.2387,-5.244,-5.2486,-5.2491,-5.251,-5.2533,-5.2535,-5.2429,-5.2415,-5.2401,-5.2384,-5.2537,-5.2538,-5.2642,-5.2643,-5.2644]},{"header":{"parameterUnit":"m.s-1","parameterCategory":1,"la1":30.2991,"la2":30.254,"lo1":-89.0895,"lo2":-89.0444,"dy":0.0017,"dx":0.0017,"nx":28,"ny":28,"refTime":"2025-03-25T21:00:00:Z","depth":0,"parameterNumber":3,"parameterNumberName":"V-component_of_WINDS"},"data":[0,0,0,0,0,0,0,0,0,0,0,0,0,0,0,0,0,0,0,0,0,0,0,0,0,0,0,0,0,0,0,0,0,0,0,0,0,0,0,0,0,0,0,0,0,0,0,0,0,0,0,0,0,0,0,0,0,0,2.0193,2.0194,0,2.0293,2.0294,2.0295,2.0413,2.0415,2.0417,2.0418,2.0515,2.0516,2.0517,0,0,0,0,0,0,0,0,0,0,0,0,0,2.0101,2.0102,2.0193,2.0194,2.0195,2.0293,2.0294,2.0295,2.0413,2.0415,2.0417,2.0419,2.0515,2.0516,2.0517,0,0,0,0,0,0,0,0,0,0,0,0,0,2.0165,2.0103,2.0193,2.0266,2.0273,2.0292,2.0294,2.0296,2.0412,2.0415,2.0418,2.042,2.0515,2.0516,2.0517,2.0471,0,0,2.0522,2.0522,0,0,0,0,0,0,0,0,2.0161,2.0168,2.0254,2.0261,2.0269,2.0343,2.0297,2.0354,2.0412,2.0359,2.0418,2.0422,2.0456,2.0462,2.0475,2.0475,2.048,2.0522,2.0522,2.0523,2.0523,0,0,0,0,0,0,0,2.0156,2.0164,2.0232,2.0255,2.0264,2.0293,2.0305,2.0309,2.0391,2.0364,2.0373,2.0383,2.046,2.0473,2.0478,2.0481,2.0522,2.0523,2.0524,2.0524,2.0452,2.0449,0,0,0,0,0,0,2.0141,2.016,2.0229,2.0235,2.0221,2.0292,2.0306,2.0317,2.0391,2.0405,2.0381,2.0388,2.0469,2.0476,2.0482,2.0434,2.0523,2.0524,2.0525,2.0454,2.0451,2.0448,0,0,0,0,0,0,2.0139,2.0147,2.0225,2.02,2.0212,2.0291,2.0302,2.0317,2.033,2.0404,2.0419,2.0379,2.0472,2.048,2.0474,2.0439,2.0525,2.0526,2.0458,2.0453,2.045,2.0337,0,0,0,0,0,0,2.0136,2.0145,2.0129,2.0199,2.0213,2.0216,2.03,2.0317,2.0333,2.0344,2.0406,2.0419,2.0475,2.0471,2.0475,2.0442,2.0527,2.0461,2.0456,2.0451,2.0344,2.033,2.0317,0,0,0,0,0,2.0132,2.0091,2.0127,2.0135,2.0194,2.0214,2.0222,2.0288,2.0329,2.0313,2.0361,2.0417,2.0442,2.0469,2.0475,2.0442,2.0464,2.0457,2.0451,2.035,2.0333,2.0318,0,0,0,0,0,0,2.0012,2.0102,2.0142,2.0123,2.016,2.0234,2.0215,2.0267,2.0291,2.03,2.038,2.0393,2.0378,2.041,2.0438,2.0402,2.0461,2.0456,2.0382,2.0366,2.0353,2.0346,2.0528,0,0,0,0,0,1.9984,1.9993,2.007,2.0046,2.0063,2.0135,2.0146,2.0195,2.0236,2.0251,2.0299,2.0335,2.0352,2.0361,2.038,2.035,2.0365,2.033,2.0316,2.0305,2.0299,2.0288,2.0273,2.0428,2.0428,2.0428,0,0,1.9925,1.9975,1.9975,2.0023,2.0058,2.0065,2.0148,2.0151,2.0158,2.0251,2.025,2.0286,2.0332,2.0314,2.0308,2.034,2.026,2.0297,2.0287,2.0288,2.028,2.0265,2.0252,2.0424,2.0425,2.0425,0,0,1.9822,1.986,1.9845,1.9879,1.9931,1.998,1.9976,2.0042,2.0071,2.0071,2.0142,2.015,2.0176,2.0207,2.0225,2.0136,2.0189,2.014,2.0069,2.0057,2.0045,2.0035,2.0004,1.9992,2.0134,2.0134,2.0134,0,1.9741,1.9756,1.983,1.9831,1.985,1.9938,1.9923,1.9952,2.0006,2.0017,2.0052,2.0089,2.0125,2.0117,2.0096,2.0108,2.0106,2.0133,2.0041,2.0031,2.0023,1.9995,1.9983,2.0128,2.0129,2.0129,2.013,0,1.9656,1.9665,1.9647,1.9701,1.9718,1.971,1.9783,1.9791,1.9838,1.9883,1.9883,1.9931,1.9962,1.9964,2.0008,1.9962,1.998,2.0027,2.0087,2.0001,1.9976,1.9965,2.0119,2.0121,2.0123,2.0125,0,0,1.9478,1.9575,1.9567,1.9594,1.9658,1.9667,1.9664,1.9697,1.9703,1.9738,1.9738,1.9759,1.9804,1.9825,1.9874,1.9863,1.9792,1.9912,1.9914,1.9889,1.9746,1.9711,1.9697,1.9827,1.9825,1.9824,1.9742,0,1.9388,1.939,1.9457,1.944,1.9451,1.9535,1.9533,1.9572,1.9614,1.9629,1.9675,1.969,1.9747,1.9761,1.9754,1.9802,1.9764,1.9809,1.9828,1.9827,1.9814,1.9684,1.9647,1.9568,1.9733,1.9731,1.973,0,1.9282,1.9314,1.9298,1.9366,1.9373,1.937,1.9407,1.942,1.9466,1.9498,1.9523,1.958,1.9582,1.9639,1.9643,1.9671,1.9683,1.9708,1.9707,1.9711,1.9774,1.9686,1.9544,1.9532,1.9715,1.9716,1.9717,0,1.9156,1.9195,1.9192,1.9211,1.929,1.9286,1.9318,1.9368,1.9384,1.9416,1.9427,1.9457,1.9474,1.9496,1.956,1.9595,1.9556,1.9618,1.9583,1.9581,1.9571,1.9571,1.9429,1.9577,1.9577,1.9577,1.9577,0,1.9048,1.9036,1.9137,1.9134,1.9123,1.92,1.9187,1.9227,1.9271,1.9278,1.9351,1.9356,1.944,1.9453,1.9503,1.9499,1.9506,1.9531,1.9545,1.9525,1.9522,1.9534,1.9542,1.9574,1.9575,1.9575,1.9576,0,1.8906,1.8973,1.8975,1.905,1.9069,1.9057,1.9122,1.9122,1.9171,1.9178,1.9185,1.9259,1.928,1.9346,1.9381,1.9415,1.9397,1.9422,1.9381,1.939,1.9352,1.9355,1.9214,1.92,1.9354,1.9353,1.9351,0,1.8833,1.8826,1.8901,1.8912,1.8942,1.8958,1.8977,1.9052,1.9068,1.9122,1.9116,1.9143,1.9169,1.9197,1.9254,1.9283,1.9309,1.9258,1.9314,1.9295,1.931,1.931,1.9311,1.9246,1.9244,1.9242,1.9241,0,1.8697,1.8731,1.8755,1.8791,1.8811,1.8842,1.8877,1.8882,1.8967,1.898,1.9004,1.9024,1.9062,1.9088,1.9126,1.9159,1.9214,1.9223,1.9217,1.9197,1.9174,1.9187,1.9349,1.9226,1.9227,1.9228,1.9229,1.923,1.8588,1.8587,1.8641,1.8665,1.8701,1.8733,1.8738,1.8788,1.8809,1.8848,1.8891,1.891,1.8958,1.9015,1.9044,1.9059,1.9089,1.9079,1.9076,1.9073,1.9064,1.9172,1.9066,1.9066,1.9067,1.9067,1.9068,0,1.8458,1.8497,1.8519,1.8568,1.8587,1.864,1.8682,1.8694,1.871,1.8752,1.8776,1.8804,1.883,1.8889,1.8921,1.8922,1.8948,1.8927,1.8929,1.8935,1.9035,1.9039,1.8906,1.8906,1.8906,1.8906,1.8906,1.8906,1.8392,1.8393,1.8434,1.8453,1.8493,1.8513,1.8533,1.8563,1.8597,1.8625,1.8648,1.8687,1.8736,1.8772,1.8799,1.8816,1.8824,1.8796,1.882,1.8913,1.8928,1.8943,1.8946,1.8797,1.8796,1.872,1.8719,1.8719]}]]